Flag for Germany Weather past 2 weeks in Solingen, North Rhine-Westphalia, Germany

Now
50 °F

Fog.


Feels Like: 49 °F
Forecast: 53 / 70 °F
Wind: 3 mph from Southeast

Location: Duesseldorf

Current Time: Sep 2, 2014 at 5:19:53 AM

Latest Report: Sep 2, 2014 at 4:50 AM


Visibility: N/A

Pressure: 30.15 "Hg

Humidity: 100%

Dew point: 50 °F

Location of SolingenLocation

Historic Weather in Solingen — Graph

°F

Solingen temperature yesterday

Maximum temperature yesterday: 66 °F (at 3:50 PM)
Minimum temperature yesterday: 48 °F (at 2:50 AM)
Average temperature yesterday: 58 °F

Past Weeks' High & Low Weather Summary

 TemperatureHumidityPressure
High73 °F (Aug 28, 2:20 PM)100% (Aug 26, 8:20 AM)30.15 "Hg (Aug 26, 8:20 AM)
Low46 °F (Aug 20, 2:50 AM)40% (Aug 27, 4:20 PM)29.62 "Hg (Aug 26, 4:50 AM)
Average58 °F79%29.95 "Hg
* Reported Aug 18 4:20 AM — Sep 2 4:20 AM, Solingen, Weather by CustomWeather, © 2014

Note: Actual official high and low records may vary slightly from our data, if they occured in-between our weather recording intervals... More about our weather records

Advertising

Solingen weather history for previous 24 hours

 ConditionsComfort  
Time TempWeatherWind HumidityBarometerVisibility
4:20 AM
Sep 2
52 °FFog.3 mph94%30.15 "HgN/A
3:50 AM52 °FFog.3 mph94%30.15 "HgN/A
3:20 AM52 °FFog.1 mph94%30.15 "HgN/A
2:50 AM54 °FFog.2 mph94%30.15 "HgN/A
2:20 AM54 °FFog.2 mph94%30.15 "HgN/A
1:50 AM54 °FFog.3 mph94%30.15 "HgN/A
1:20 AM55 °FFog.2 mph94%30.15 "HgN/A
12:50 AM55 °FFog.1 mph94%30.15 "HgN/A
12:20 AM57 °FClear.3 mph88%30.15 "Hg10 mi
11:50 PM
Sep 1
57 °FClear.5 mph94%30.15 "Hg10 mi
11:20 PM57 °FClear.1 mph94%30.15 "Hg10 mi
10:20 PM59 °FClear.2 mph88%30.15 "Hg10 mi
9:50 PM59 °FClear.2 mph82%30.12 "Hg10 mi
9:20 PM59 °FClear.No wind82%30.12 "Hg10 mi
8:50 PM61 °FSunny.1 mph77%30.12 "Hg10 mi
8:20 PM63 °FSunny.5 mph77%30.12 "Hg10 mi
7:50 PM64 °FSunny.2 mph68%30.12 "Hg10 mi
7:20 PM64 °FSunny.3 mph68%30.12 "Hg10 mi
6:50 PM66 °FSunny.3 mph64%30.12 "Hg10 mi
6:20 PM66 °FPartly sunny.3 mph64%30.12 "HgN/A
5:50 PM66 °FPartly sunny.3 mph64%30.12 "HgN/A
5:20 PM66 °FPartly sunny.6 mph64%30.12 "HgN/A
4:50 PM66 °FPartly sunny.5 mph64%30.12 "HgN/A
4:20 PM66 °FPartly sunny.5 mph64%30.12 "HgN/A
3:50 PM66 °FPartly sunny.3 mph64%30.12 "HgN/A
3:20 PM64 °FPartly sunny.5 mph68%30.12 "HgN/A
2:50 PM64 °FPartly sunny.2 mph68%30.15 "HgN/A
2:20 PM64 °FPartly sunny.3 mph68%30.15 "HgN/A
1:50 PM64 °FPartly sunny.3 mph73%30.15 "HgN/A
1:20 PM63 °FPartly sunny.5 mph77%30.15 "HgN/A
12:50 PM61 °FPartly sunny.2 mph88%30.15 "HgN/A
12:20 PM59 °FPartly sunny.2 mph88%30.15 "HgN/A
11:50 AM57 °FPartly sunny.6 mph94%30.15 "Hg6 mi
11:20 AM57 °FPartly sunny.6 mph100%30.15 "Hg4 mi
10:50 AM55 °FFog.6 mph100%30.15 "Hg3 mi
10:20 AM55 °FFog.3 mph100%30.15 "Hg1 mi
9:50 AM54 °FFog.3 mph100%30.12 "Hg1 mi
9:20 AM54 °FFog.5 mph100%30.12 "Hg1 mi
8:50 AM54 °FFog.3 mph100%30.12 "Hg1 mi
8:20 AM54 °FFog.3 mph100%30.12 "Hg0 mi
7:50 AM54 °FFog.5 mph100%30.12 "Hg0 mi
7:20 AM54 °FFog.5 mph100%30.12 "Hg0 mi
6:50 AM54 °FFog.5 mph100%30.12 "Hg1 mi
6:20 AM54 °FFog.5 mph100%30.12 "Hg1 mi
5:50 AM54 °FFog.5 mph100%30.12 "Hg1 mi
5:20 AM52 °FFog.3 mph100%30.09 "Hg1 mi
Weather by CustomWeather, © 2014

See weather overviewHow to use our weather pages